Location: Cahas Mountain Overlook
(37.0833°N, 80.1000°W)
Time: 19:15:52
(UTC-05:00)

Vanguard 3 - Pass Details

Date: 10 December 2023
Orbit: 508 x 3239 km, 33.4° (Epoch: 23 February)

Event Time Altitude Azimuth Distance (km) Brightness Sun altitude
Rises 22:33:53 0° 265° (W) 6,588 12.1 -64.4°
Reaches altitude 10° 22:38:51 10° 264° (W) 5,216 11.4 -65.3°
Enters shadow 22:42:48 20° 262° (W) 4,076 10.7 -66.0°
